Regional Weather Roundup
Issued by NWS Columbia, SC

Home | Current Version | Previous Version | Text Only | Print | Product List | Glossary On
Versions: 1 2 3 4 5 6 7 8 9 10 11 12 13 14 15 16 17 18 19 20 21 22 23 24 25 26 27
000
ASUS42 KCAE 231010
RWRCAE
REGIONAL WEATHER ROUNDUP
NATIONAL WEATHER SERVICE COLUMBIA SC
500 AM EST THU FEB 23 2017

NOTE: "FAIR" INDICATES FEW OR NO CLOUDS BELOW 12,000 FEET WITH NO
SIGNIFICANT WEATHER AND/OR OBSTRUCTIONS TO VISIBILITY.

NOT ALL STATIONS ARE QUALITY CONTROLLED BY THE NATIONAL
WEATHER SERVICE. USE DATA WITH CAUTION...ESPECIALLY
DEWPOINT OBSERVATIONS.

SCZ001>056-GAZ040-063>065-077-231100-
...UPSTATE SOUTH CAROLINA...

CITY           SKY/WX    TMP DP  RH WIND       PRES   REMARKS
ANDERSON       CLEAR     55  52  89 NE6       29.89S
LIBERTY        SUNNY     49  49  98 NE3       29.89S FOG
SPARTANBURG    CLOUDY    52  50  93 CALM      29.90S
CLEMSON        PTCLDY    56  52  86 CALM      29.91R
GREENVILLE     CLOUDY    57  53  86 NE5       29.91R
GREENWOOD      CLEAR     52  51  97 CALM      29.90S FOG
GREER          CLOUDY    56  52  86 NE3       29.89S
ROCK HILL      PTCLDY    55  53  93 SE3       29.91S
CHESTER        MOSUNNY   54  54 100 CALM      29.92S
LAURENS        SUNNY     50  50 100 NE5       29.90S FOG


...CENTRAL SOUTH CAROLINA...

CITY           SKY/WX    TMP DP  RH WIND       PRES   REMARKS
COLUMBIA APT   MOCLDY    60  55  83 N5        29.88R
COLUMBIA OWENS MOCLDY    59  54  83 VRB3      29.89R
MCENTIRE ANGB  PTCLDY    57  54  91 N6        29.87S
ORANGEBURG     CLOUDY    58  55  90 NE8       29.85S
SUMTER SHAW    MOCLDY    55  52  92 NE7       29.86R
AIKEN          PTSUNNY   55  54  94 NE6       29.91R
BARNWELL       FAIR      59  57  94 N6        29.85R
MANNING        FAIR      55  43  62 MISG      29.86S
CAMDEN         FAIR      54  52  94 CALM      29.90R
LANCASTER      MOSUNNY   54  54 100 CALM      29.92R
WINNSBORO      SUNNY     54  54 100 N5        29.90R


...EASTERN AND COASTAL SOUTH CAROLINA...

CITY           SKY/WX    TMP DP  RH WIND       PRES   REMARKS
MYRTLE BEACH   CLOUDY    59  54  83 N7        29.87F
N MYRTLE BCH   MOCLDY    57  55  93 NE6       29.87S
CONWAY         FAIR      52  50  93 CALM      29.87F
MARION         FAIR      54  52  94 NE5       29.89S
HARTSVILLE     FAIR      54  52  94 N3        29.89R
FLORENCE       MOCLDY    56  54  93 NE6       29.88S
DARLINGTON     CLOUDY    53  52  96 N7        29.90
CHARLESTON APT MOCLDY    60  57  89 NE9       29.83R
MOUNT PLEASANT FAIR      61  57  88 CALM      29.84R
WALTERBORO     CLOUDY    59  55  88 NE5       29.84S
BEAUFORT       CLOUDY    60  60 100 NE7       29.81S


...EASTERN GEORGIA...

CITY           SKY/WX    TMP DP  RH WIND       PRES   REMARKS
AUGUSTA BUSH F MOCLDY    58  56  93 N6        29.86R
AUGUSTA DANIEL PTCLDY    59  55  87 N6        29.87R
THOMSON        CLEAR     57  57 100 CALM      29.91S
WASHINGTON     FAIR      55  55 100 E3        29.87S FOG
CLAXTON        FAIR     N/A N/A N/A NE6       29.80S
SYLVANIA       CLOUDY   N/A N/A N/A E6        29.82S
STATESBORO     CLOUDY    61  61 100 CALM      29.81S
SAVANNAH       PTCLDY    62  58  86 N12       29.80R


...SOUTHERN NORTH CAROLINA...

CITY           SKY/WX    TMP DP  RH WIND       PRES   REMARKS
CHARLOTTE      CLOUDY    55  52  89 N3        29.92R
MONROE         PTCLDY    53  50  89 N3        29.91R
WADESBORO      MOSUNNY   49  48  94 CALM      29.91R
ROCKINGHAM     PTSUNNY   53  53 100 CALM      29.91R
RUTHERFORDTON  PTCLDY    51  51 100 CALM      29.93R FOG
ASHEVILLE      CLOUDY    50  48  93 CALM      29.93S

$$




USA.gov is the U.S. government's official web portal to all federal, state and local government web resources and services.